カタログに戻る

CZ-6A DEB

運用中PO
NORAD 56586·DEBRIS·🇨🇳 China

打ち上げ Nov 11, 2022 から Taiyuan Satellite Launch Center

Loading…

次のパス (今後24時間)

TLE

最新Source: Space-Track

元期: Sep 14, 2026, 03:59 UTC

1 56586U 22151ADJ 26257.16630181  .00014568  00000-0  16466-2 0  9998
2 56586  98.6369 334.8983 0044127 356.1645   3.9223 14.85896498191966

AllMySatでCZ-6A DEBをリアルタイム追跡

Download on the App Store